Regional Weather Roundup
Issued by NWS

Home | Current Version | Previous Version | Text Only | Print | Product List | Glossary Off
Versions: 1 2 3 4 5 6 7 8 9 10 11 12 13 14 15 16 17 18 19 20 21 22 23 24 25 26 27 28 29 30 31 32 33 34 35 36 37 38 39 40 41 42 43 44 45 46 47 48 49 50

000
ASUS43 KBIS 030502
RWRND

NORTH DAKOTA REGIONAL WEATHER ROUNDUP
NATIONAL WEATHER SERVICE BISMARCK ND
1200 AM CDT WED JUN 03 2015

NOTE: "FAIR" INDICATES FEW OR NO CLOUDS BELOW 12,000 FEET WITH NO
SIGNIFICANT WEATHER AND/OR OBSTRUCTIONS TO VISIBILITY.


NDZ001>003-009>011-017-030600-
NORTHWEST NORTH DAKOTA

CITY           SKY/WX    TMP DP  RH WIND       PRES   REMARKS
WILLISTON      PTCLDY    55  51  86 N12       29.91F
MINOT          LGT RAIN  52  48  86 N24G33    29.83R
MINOT AFB      CLOUDY    52  52 100 NE25G33   29.82F
$$

NDZ018>021-031>035-040>046-030600-
SOUTHWEST NORTH DAKOTA

CITY           SKY/WX    TMP DP  RH WIND       PRES   REMARKS
BISMARCK       MOCLDY    64  56  75 W7        29.79R
DICKINSON      CLOUDY    57  53  86 N12       29.86R
GARRISON         N/A     56  53  90 NE17G28   29.79R
HETTINGER ARPT CLOUDY    54  50  86 W7        29.91R
$$

NDZ004>008-012>016-024-026-027-054-030600-
NORTHEAST NORTH DAKOTA

CITY           SKY/WX    TMP DP  RH WIND       PRES   REMARKS
GRAND FORKS    MOCLDY    62  60  93 NE10      29.72F
GRND FRKS AFB  CLOUDY    61  60  96 NE9       29.74S
DEVILS LAKE    CLOUDY    61  55  82 NE15G23   29.77S
$$

NDZ022-023-025-028>030-036>039-047>053-030600-
SOUTHEAST NORTH DAKOTA

CITY           SKY/WX    TMP DP  RH WIND       PRES   REMARKS
FARGO          MOCLDY    73  62  68 S20G26    29.64F
JAMESTOWN      CLOUDY    62  60  93 N13       29.72R
$$




USA.gov is the U.S. government's official web portal to all federal, state and local government web resources and services.